Regional Weather Roundup
Issued by NWS

Home | Current Version | Previous Version | Text Only | Print | Product List | Glossary On
Versions: 1 2 3 4 5 6 7 8 9 10 11 12 13 14 15 16 17 18 19 20 21 22 23 24 25 26 27 28 29 30 31 32 33 34 35 36 37 38 39 40 41 42 43 44 45 46 47 48 49 50
000
ASUS44 KLIX 261806
RWRLA
LOUISIANA WEATHER ROUNDUP
NATIONAL WEATHER SERVICE NEW ORLEANS LA
100 PM CDT THU APR 26 2018

NOTE: "FAIR" INDICATES FEW OR NO CLOUDS BELOW 12,000 FEET WITH NO
      SIGNIFICANT WEATHER AND/OR OBSTRUCTIONS TO VISIBILITY.
      SKY/WX - SKY CONDITION AND SIGNIFICANT WEATHER.
      TMP - AIR TEMPERATURE.    DP   - DEWPOINT TEMPERATURE.
      RH  - RELATIVE HUMIDITY.  PRES - PRESSURE.
      HX  - HEAT INDEX.         WCI  - WIND CHILL INDEX.

*  THESE STATIONS ARE NOT NWS OR FAA STATIONS AND ARE NOT UNDER
   NWS QUALITY CONTROL.

LAZ040-048-061>063-065-066-069-261900-
SOUTHEAST LOUISIANA

CITY           SKY/WX    TMP DP  RH WIND       PRES   REMARKS
N.O. INTL ARPT FAIR      72  55  55 NW10      29.91F
6HR MIN TEMP:  62; 6HR MAX TEMP:  72; 6HR PCP:  0.03;

N.O. LAKEFRONT FAIR      69  56  62 NW15      29.92F
6HR MIN TEMP:  64; 6HR MAX TEMP:  70; 6HR PCP:  0.03;

N.O. DOWNTOWN* FAIR      72  55  55 VRB6      29.92F
6HR MIN TEMP:  62; 6HR MAX TEMP:  72; 6HR PCP:  0.12;

RESERVE*       FAIR      75  49  39 NW10      29.92F
6HR MIN TEMP:  62; 6HR MAX TEMP:  76; 6HR PCP:  0.01;

SLIDELL        FAIR      71  53  52 NW9       29.90F
6HR MIN TEMP:  62; 6HR MAX TEMP:  71; 6HR PCP:  0.07;

BATON ROUGE    FAIR      65  48  54 W9        29.96F
6HR MIN TEMP:  57; 6HR MAX TEMP:  66;

BOOTHVILLE     PTSUNNY   73  65  75 W14       29.92F HAZE
6HR MIN TEMP:  66; 6HR MAX TEMP:  74; 6HR PCP:  0.03;

BELLE CHASSE   FAIR      72  58  61 NW10      29.91F
6HR MIN TEMP:  61; 6HR MAX TEMP:  72; 6HR PCP: TRACE;

BOGALUSA*      MOCLDY    69  52  54 NW13      29.92F
6HR MIN TEMP:  61; 6HR MAX TEMP:  69;

GALLIANO*      FAIR      72  56  57 W12       29.92F
6HR MIN TEMP:  62; 6HR MAX TEMP:  72; 6HR PCP:  0.13;

NEW ROADS*     FAIR      64  52  64 NW12      29.97F
6HR MIN TEMP:  56; 6HR MAX TEMP:  64;

GONZALES*      FAIR      68  52  56 NW9       29.93F
6HR MIN TEMP:  60; 6HR MAX TEMP:  68;

HAMMOND*       FAIR      68  52  56 NW10G21   29.93F
HOUMA*         SUNNY     73  52  46 W10       29.93F
PORT FOURCHON* PTCLDY    68  61  77 NW9G16    29.93F

$$

LAZ041-044-053-054-261900-
SOUTHWEST LOUISIANA

CITY           SKY/WX    TMP DP  RH WIND       PRES   REMARKS
LAKE CHARLES   FAIR      71  47  42 NW10      29.98F
6HR MIN TEMP:  57; 6HR MAX TEMP:  71;

LAFAYETTE      FAIR      69  50  50 NW9       29.96F
6HR MIN TEMP:  58; 6HR MAX TEMP:  69;

PATTERSON      FAIR      69  54  58 NW9       29.95F
6HR MIN TEMP:  60; 6HR MAX TEMP:  69; 6HR PCP: TRACE;

SALT POINT       N/A    N/A N/A N/A VRB7      29.94F
NEW IBERIA     FAIR      69  47  45 NW9       29.96F
6HR MIN TEMP:  60; 6HR MAX TEMP:  70;

CHENAULT AIRPK SUNNY     68  48  49 NW12G20   29.98F

$$

LAZ027-028-261900-
CENTRAL LOUISIANA

CITY           SKY/WX    TMP DP  RH WIND       PRES   REMARKS
FORT POLK      FAIR      67  48  49 N8        29.96
6HR MIN TEMP:  52; 6HR MAX TEMP:  67;

ALEXANDRIA INT FAIR      67  49  52 N10       29.96F
6HR MIN TEMP:  51; 6HR MAX TEMP:  67; 6HR PCP: TRACE;

ALEXANDRIA     PTSUNNY   67  49  52 NW7       29.96F
6HR MIN TEMP:  52; 6HR MAX TEMP:  68;


$$

LAZ001-002-261900-
NORTHWEST LOUISIANA

CITY           SKY/WX    TMP DP  RH WIND       PRES   REMARKS
SHREVEPORT     CLOUDY    63  49  60 N9        29.99F
6HR MIN TEMP:  49; 6HR MAX TEMP:  65;

BARKSDALE AFB  PTSUNNY   61  49  65 N10       29.99
6HR MIN TEMP:  49; 6HR MAX TEMP:  61;

DTN SHREVEPORT PTSUNNY   65  50  58 N9        30.00F
6HR MIN TEMP:  49; 6HR MAX TEMP:  65;


$$

LAZ014-016-261900-
NORTHEAST LOUISIANA

CITY           SKY/WX    TMP DP  RH WIND       PRES   REMARKS
MONROE         CLOUDY    60  52  74 NW12      29.99R
6HR MIN TEMP:  54; 6HR MAX TEMP:  60;

TALLULAH       CLOUDY    60  53  77 W8        29.96S
6HR MIN TEMP:  55; 6HR MAX TEMP:  61;


$$




USA.gov is the U.S. government's official web portal to all federal, state and local government web resources and services.